McGuire AFB, NJ

5:41 PM EDT on May 22, 2017 (GMT -0400)
McGuire Air Force Base

Weather History for KWRI - December, 2012

Change the Weather History Date:

Tuesday, December 18, 2012

  Actual Average Record
Temperature  
Mean Temperature 49 °F -  
Max Temperature 57 °F 44 °F 68 °F (2006)
Min Temperature 41 °F 26 °F 15 °F (2002)
Degree Days  
Heating Degree Days 16    
Moisture  
Dew Point 48 °F    
Average Humidity 91    
Maximum Humidity 100    
Minimum Humidity 60    
Precipitation  
Precipitation 0.22 in - - ()
Sea Level Pressure  
Sea Level Pressure 29.53 in    
Wind  
Wind Speed 6 mph (West)    
Max Wind Speed 21 mph    
Max Gust Speed 30 mph    
Visibility 7 miles    
Events Rain    
Averages and records for this station are not official NWS values.
T = Trace of Precipitation, MM = Missing Value Source: NWS Daily Summary

Daily Weather History Graph

Daily Weather History Graph

Search for Another Location

Airport or City:

Trip Planner

Search our weather history database for the weather conditions in past years. The results will help you decide how hot, cold, wet, or windy it might be!

Date:

Astronomy

Dec. 18, 2012 Rise Set
Actual Time 7:15 AM EST 4:35 PM EST
Civil Twilight 6:44 AM EST 5:05 PM EST
Nautical Twilight 6:10 AM EST 5:39 PM EST
Astronomical Twilight 5:37 AM EST 6:12 PM EST
Moon 10:54 AM EST (12/18) 10:58 PM EST (12/18)
Length of Visible Light 10h 21m
Length of Day
9h 19m
Waxing Crescent, 34% of the Moon is Illuminated
Dec 18
Waxing Crescent
Dec 20
First Quarter
Dec 28
Full
Jan 4
Last Quarter
Jan 11
New

Hourly Weather History & Observations

Time (EST) Temp. Windchill Dew Point Humidity Pressure Visibility Wind Dir Wind Speed Gust Speed Precip Events Conditions
12:02 AM 48.2 °F - 48.2 °F 100% 29.58 in 4.0 mi NE 4.6 mph - N/A   Overcast
12:08 AM 48.2 °F - 48.2 °F 100% 29.57 in 4.0 mi Calm Calm - N/A   Overcast
12:19 AM 48.2 °F - 48.2 °F 100% 29.56 in 2.5 mi East 3.5 mph - N/A   Overcast
12:21 AM 48.2 °F - 48.2 °F 100% 29.56 in 2.5 mi East 3.5 mph - N/A   Overcast
12:48 AM 50.0 °F - 50.0 °F 100% 29.55 in 1.8 mi Calm Calm - N/A   Overcast
12:53 AM 50.0 °F - 50.0 °F 100% 29.54 in 1.5 mi Calm Calm - N/A   Overcast
12:55 AM 49.6 °F - 49.6 °F 100% 29.54 in 1.5 mi Calm Calm - N/A   Overcast
12:59 AM 50.0 °F - 50.0 °F 100% 29.54 in 1.2 mi Calm Calm - N/A   Overcast
1:03 AM 50.0 °F - 50.0 °F 100% 29.53 in 1.2 mi East 4.6 mph - N/A Rain Light Rain
1:05 AM 50.0 °F - 50.0 °F 100% 29.53 in 1.0 mi East 4.6 mph - N/A Rain Light Rain
1:09 AM 50.0 °F - 50.0 °F 100% 29.53 in 1.2 mi ENE 4.6 mph - N/A Rain Light Rain
1:15 AM 50.0 °F - 50.0 °F 100% 29.53 in 1.5 mi East 4.6 mph - N/A Rain Light Rain
1:20 AM 50.0 °F - 50.0 °F 100% 29.52 in 1.8 mi ESE 3.5 mph - N/A Rain Light Rain
1:33 AM 51.8 °F - 51.8 °F 100% 29.52 in 1.8 mi Calm Calm - N/A Rain Rain
1:34 AM 51.8 °F - 51.8 °F 100% 29.51 in 2.0 mi Calm Calm - N/A Rain Light Rain
1:35 AM 51.8 °F - 51.8 °F 100% 29.51 in 2.0 mi Calm Calm - N/A Rain Light Rain
1:39 AM 51.8 °F - 51.8 °F 100% 29.51 in 3.0 mi Calm Calm - N/A Rain Light Rain
1:40 AM 51.8 °F - 51.8 °F 100% 29.51 in 4.0 mi Calm Calm - N/A Rain Light Rain
1:53 AM 51.8 °F - 51.8 °F 100% 29.51 in 2.5 mi Calm Calm - N/A Rain Rain
1:55 AM 51.6 °F - 51.6 °F 100% 29.51 in 1.8 mi Calm Calm - 0.13 in Rain Heavy Rain
1:57 AM 51.8 °F - 51.8 °F 100% 29.51 in 1.5 mi Calm Calm - N/A Rain Heavy Rain
1:58 AM 51.8 °F - 51.8 °F 100% 29.51 in 1.2 mi Calm Calm - N/A Rain Heavy Rain
1:59 AM 51.8 °F - 51.8 °F 100% 29.51 in 1.2 mi Calm Calm - N/A Rain Heavy Rain
2:02 AM 51.8 °F - 51.8 °F 100% 29.51 in 1.5 mi Calm Calm - N/A Rain Rain
2:03 AM 51.8 °F - 51.8 °F 100% 29.51 in 1.5 mi Calm Calm - N/A Rain Light Rain
2:04 AM 51.8 °F - 51.8 °F 100% 29.51 in 1.8 mi Calm Calm - N/A Rain Light Rain
2:05 AM 51.8 °F - 51.8 °F 100% 29.51 in 2.0 mi Calm Calm - N/A Rain Light Rain
2:07 AM 51.8 °F - 51.8 °F 100% 29.51 in 3.0 mi Calm Calm - N/A Rain Light Rain
2:19 AM 51.8 °F - 51.8 °F 100% 29.50 in 10.0 mi South 3.5 mph - N/A   Overcast
2:52 AM 53.6 °F - 53.6 °F 100% 29.50 in 9.0 mi SSW 5.8 mph - N/A   Overcast
2:53 AM 53.6 °F - 53.6 °F 100% 29.50 in 9.0 mi SSW 5.8 mph - N/A   Overcast
2:55 AM 53.1 °F - 53.1 °F 100% 29.50 in 9.0 mi SSW 5.8 mph - 0.04 in   Overcast
3:07 AM 53.6 °F - 53.6 °F 100% 29.50 in 10.0 mi SSW 8.1 mph - N/A   Overcast
3:20 AM 53.6 °F - 53.6 °F 100% 29.50 in 10.0 mi SSW 11.5 mph - N/A   Overcast
3:55 AM 53.4 °F - 53.4 °F 100% 29.49 in 10.0 mi SW 10.4 mph - N/A   Overcast
4:32 AM 53.6 °F - 53.6 °F 100% 29.50 in 10.0 mi WSW 12.7 mph - N/A   Overcast
4:34 AM 53.6 °F - 53.6 °F 100% 29.49 in 10.0 mi WSW 12.7 mph - N/A   Overcast
4:47 AM 53.6 °F - 53.6 °F 100% 29.50 in 10.0 mi WSW 11.5 mph - N/A   Overcast
4:55 AM 52.5 °F - 52.5 °F 100% 29.49 in 10.0 mi WSW 10.4 mph - 0.01 in   Overcast
5:55 AM 52.5 °F - 52.3 °F 99% 29.51 in 10.0 mi WSW 9.2 mph - N/A   Overcast
6:16 AM 51.8 °F - 51.8 °F 100% 29.52 in 10.0 mi WSW 9.2 mph - N/A   Overcast
6:39 AM 51.8 °F - 51.8 °F 100% 29.52 in 10.0 mi WSW 12.7 mph 17.3 mph N/A   Overcast
6:49 AM 51.8 °F - 50.0 °F 94% 29.52 in 10.0 mi West 10.4 mph - N/A   Overcast
6:55 AM 51.1 °F - 50.5 °F 98% 29.53 in 10.0 mi WNW 9.2 mph - N/A   Overcast
6:59 AM 51.8 °F - 50.0 °F 94% 29.53 in 10.0 mi WNW 8.1 mph - N/A   Overcast
7:14 AM 50.0 °F - 50.0 °F 100% 29.52 in 10.0 mi West 5.8 mph - N/A   Mostly Cloudy
7:23 AM 50.0 °F - 50.0 °F 100% 29.53 in 10.0 mi West 4.6 mph - N/A   Mostly Cloudy
7:55 AM 49.1 °F - 48.7 °F 99% 29.53 in 5.0 mi West 4.6 mph - N/A   Clear
8:15 AM 50.0 °F - 50.0 °F 100% 29.54 in 6.0 mi West 8.1 mph - N/A   Partly Cloudy
8:25 AM 50.0 °F - 50.0 °F 100% 29.55 in 7.0 mi WSW 10.4 mph - N/A   Mostly Cloudy
8:28 AM 50.0 °F - 50.0 °F 100% 29.54 in 7.0 mi WSW 10.4 mph - N/A   Mostly Cloudy
8:54 AM 50.0 °F - 50.0 °F 100% 29.54 in 9.0 mi West 12.7 mph - N/A   Overcast
8:55 AM 50.4 °F - 50.2 °F 99% 29.54 in 9.0 mi West 12.7 mph - N/A   Overcast
9:20 AM 51.8 °F - 50.0 °F 94% 29.54 in 10.0 mi West 10.4 mph - N/A   Mostly Cloudy
9:38 AM 51.8 °F - 50.0 °F 94% 29.55 in 10.0 mi West 10.4 mph - N/A   Scattered Clouds
9:42 AM 51.8 °F - 50.0 °F 94% 29.55 in 10.0 mi West 11.5 mph - N/A   Mostly Cloudy
9:47 AM 51.8 °F - 50.0 °F 94% 29.55 in 10.0 mi WNW 8.1 mph - N/A   Mostly Cloudy
9:48 AM 51.8 °F - 50.0 °F 94% 29.55 in 10.0 mi WNW 9.2 mph - N/A   Mostly Cloudy
9:55 AM 52.5 °F - 49.8 °F 91% 29.55 in 10.0 mi West 11.5 mph - N/A   Mostly Cloudy
9:56 AM 51.8 °F - 50.0 °F 94% 29.55 in 10.0 mi WNW 11.5 mph - N/A   Mostly Cloudy
9:58 AM 51.8 °F - 50.0 °F 94% 29.55 in 10.0 mi West 10.4 mph - N/A   Scattered Clouds
10:31 AM 53.6 °F - 50.0 °F 88% 29.53 in 10.0 mi West 11.5 mph - N/A   Mostly Cloudy
10:33 AM 53.6 °F - 50.0 °F 88% 29.53 in 10.0 mi West 10.4 mph - N/A   Scattered Clouds
10:55 AM 55.8 °F - 49.1 °F 78% 29.52 in 10.0 mi West 13.8 mph - N/A   Partly Cloudy
11:55 AM 57.0 °F - 45.7 °F 66% 29.51 in 10.0 mi West 12.7 mph 20.7 mph N/A   Partly Cloudy
12:55 PM 57.4 °F - 45.1 °F 64% 29.48 in 10.0 mi West 15.0 mph - N/A   Partly Cloudy
1:55 PM 56.1 °F - 42.4 °F 60% 29.47 in 10.0 mi West 8.1 mph - N/A   Scattered Clouds
2:31 PM 53.6 °F - 42.8 °F 67% 29.48 in 10.0 mi WNW 15.0 mph - N/A Rain Light Rain
2:44 PM 53.6 °F - 41.0 °F 62% 29.48 in 10.0 mi West 9.2 mph - N/A   Mostly Cloudy
2:55 PM 54.7 °F - 42.1 °F 62% 29.48 in 10.0 mi West 12.7 mph - 0.00 in   Mostly Cloudy
3:12 PM 55.4 °F - 42.8 °F 63% 29.49 in 5.0 mi West 15.0 mph 23.0 mph N/A Rain Light Rain
3:22 PM 53.6 °F - 42.8 °F 67% 29.49 in 7.0 mi West 12.7 mph - N/A   Mostly Cloudy
3:40 PM 51.8 °F - 42.8 °F 71% 29.51 in 10.0 mi NW 16.1 mph 26.5 mph N/A Rain Light Rain
3:55 PM 49.3 °F - 43.0 °F 79% 29.52 in 6.0 mi WNW 16.1 mph 27.6 mph 0.03 in Rain Light Rain
4:09 PM 48.2 °F - 42.8 °F 82% 29.52 in 10.0 mi WNW 11.5 mph 20.7 mph N/A   Mostly Cloudy
4:55 PM 48.0 °F - 41.9 °F 79% 29.53 in 10.0 mi WNW 10.4 mph - 0.01 in   Scattered Clouds
5:55 PM 47.8 °F - 37.2 °F 67% 29.56 in 10.0 mi WNW 17.3 mph 26.5 mph N/A   Overcast
6:55 PM 46.8 °F - 35.6 °F 65% 29.59 in 10.0 mi WNW 18.4 mph 26.5 mph N/A   Overcast
7:55 PM 44.2 °F 35.9 °F 34.3 °F 68% 29.62 in 10.0 mi NW 20.7 mph 29.9 mph N/A   Mostly Cloudy
8:55 PM 42.6 °F 35.6 °F 34.0 °F 71% 29.65 in 10.0 mi NW 13.8 mph 20.7 mph N/A   Clear
9:55 PM 42.3 °F 34.8 °F 32.4 °F 68% 29.66 in 10.0 mi WNW 15.0 mph 21.9 mph N/A   Clear
10:55 PM 41.9 °F 35.0 °F 31.5 °F 66% 29.67 in 10.0 mi WNW 12.7 mph 21.9 mph N/A   Clear
11:55 PM 41.4 °F 34.0 °F 30.7 °F 66% 29.68 in 10.0 mi WNW 13.8 mph - N/A   Clear